Location: Apeadero de Los Molinos-Guadarrama
(40.7091°N, 4.0689°W)
Time: 04:41:20
(UTC+00:00)

ISS - Pass Details

Date: 03 October 2021
Orbit: 417 x 423 km, 51.6° (Epoch: 20 October)

Event Time Altitude Azimuth Distance (km) Brightness Sun altitude
Rises 18:16:37 0° 311° (NW) 2,364 0.9 -4.9°
Reaches altitude 10° 18:18:58 10° 326° (NW) 1,499 -0.5 -5.4°
Maximum altitude 18:21:48 24° 23° (NNE) 907 -2.3 -5.9°
Drops below altitude 10° 18:24:37 10° 80° (E) 1,497 -1.6 -6.5°
Enters shadow 18:24:59 - 83° (E) 1,621 -1.5 -6.5°
